Weather in Zarasai

Lithuania     55°43′54″N   26°14′43″E
temp.,
°C
wind,
m/s
gust,
m/s
humid.,
%
clouds,
%
prec.,
mm/h
press.,
hPa
HPBL,
m
28 july, wed
wed2800:00+18ssw2597100 2.1 1012110
03:00+17s2498100 2.1 101190
06:00+17sw259890 0.0 1011125
09:00+21w35825 0.0 1011446
12:00+26w355223 0.0 10101289
15:00+28w454325 0.0 10102170
18:00+25w365792 0.0 1009344
21:00+22wsw2368100 0.0 100958
29 july, thu
thu2900:00+18wsw237951 0.0 100948
03:00+18ssw2478100 0.0 100979
06:00+19sw31179100 0.1 1008420
09:00+21wsw488288 0.4 1008642
12:00+24wsw466111 0.0 10081150
15:00+27wsw564251 0.0 10062256
18:00+24w5751100 0.0 10061324
21:00+20wsw2768100 0.0 1007274
30 july, fri
fri3000:00+16wsw378797 0.0 1008148
03:00+16wsw39845 0.0 1007303
06:00+13wsw2109261 0.0 1007245
09:00+19wsw49595 0.0 10071070
12:00+22wsw61142100 0.1 10062327
15:00+20sw6124949 0.1 10061779
18:00+20sw5115193 0.0 10051339
21:00+18sw4115949 0.0 1004670
31 july, sat
sat3100:00+16sw512662 0.0 1004516
03:00+16wsw6146447 0.0 1004828
06:00+15wsw5137551 0.0 1004566
09:00+18wsw51067100 0.0 1005686
12:00+22wsw584792 0.0 10061255
15:00+24sw5741100 0.0 10051472
18:00+23sw3853100 0.0 10041228
21:00+18sw2483100 0.2 1003101
1 august, sun
sun100:00+16ssw2997100 0.8 1004310
03:00+15w3998100 0.9 1004263
06:00+13sw311960 0.0 1005285
09:00+17sw510780 0.0 1005682
12:00+21wsw686099 0.1 10061456
15:00+22wsw5859100 0.4 10071563
18:00+21sw4762100 0.3 10071173
21:00+17sw2584100 0.3 1008108